TimeMST,TemperatureF,Dew PointF,Humidity,Sea Level PressureIn,VisibilityMPH,Wind Direction,Wind SpeedMPH,Gust SpeedMPH,PrecipitationIn,Events,Conditions,WindDirDegrees,DateUTC
12:56 AM,5.0,1.9,87,29.87,-9999.0,Calm,Calm,-,N/A,,Unknown,0,2013-01-29 07:56:00
1:56 AM,5.0,1.0,84,29.85,-9999.0,Calm,Calm,-,0.01,,Unknown,0,2013-01-29 08:56:00
2:56 AM,5.0,1.0,84,29.86,-9999.0,Calm,Calm,-,N/A,,Unknown,0,2013-01-29 09:56:00
3:56 AM,3.9,1.0,88,29.86,-9999.0,Calm,Calm,-,N/A,,Unknown,0,2013-01-29 10:56:00
4:56 AM,3.0,-0.9,84,29.88,-9999.0,Calm,Calm,-,N/A,,Unknown,0,2013-01-29 11:56:00
5:56 AM,3.0,-0.9,84,29.91,-9999.0,Calm,Calm,-,N/A,,Unknown,0,2013-01-29 12:56:00
6:56 AM,3.0,-0.9,84,29.93,-9999.0,Calm,Calm,-,N/A,,Unknown,0,2013-01-29 13:56:00
7:56 AM,1.0,-2.9,83,29.94,-9999.0,Calm,Calm,-,N/A,,Unknown,0,2013-01-29 14:56:00
8:56 AM,3.9,1.0,88,29.96,-9999.0,Calm,Calm,-,0.01,,Unknown,0,2013-01-29 15:56:00
9:56 AM,8.1,3.9,83,29.95,-9999.0,ESE,3.5,-,N/A,,Unknown,120,2013-01-29 16:56:00
10:56 AM,12.9,6.1,74,29.97,-9999.0,Calm,Calm,-,N/A,,Unknown,0,2013-01-29 17:56:00
11:56 AM,15.1,3.9,61,29.98,-9999.0,Variable,6.9,-,0.01,,Unknown,0,2013-01-29 18:56:00
12:56 PM,15.1,1.9,56,29.99,-9999.0,Variable,3.5,-,N/A,,Unknown,0,2013-01-29 19:56:00
1:56 PM,16.0,-0.0,49,29.99,-9999.0,Variable,3.5,-,N/A,,Unknown,0,2013-01-29 20:56:00
2:56 PM,16.0,-0.9,47,30.02,-9999.0,Variable,6.9,16.1,N/A,,Unknown,0,2013-01-29 21:56:00
3:56 PM,15.1,-0.0,51,30.07,-9999.0,Variable,3.5,-,N/A,,Unknown,0,2013-01-29 22:56:00
4:56 PM,10.0,1.0,67,30.14,-9999.0,Calm,Calm,-,N/A,,Unknown,0,2013-01-29 23:56:00
5:56 PM,3.0,-0.9,84,30.22,-9999.0,Calm,Calm,-,N/A,,Unknown,0,2013-01-30 00:56:00
6:56 PM,-0.9,-5.1,83,30.25,-9999.0,Calm,Calm,-,N/A,,Unknown,0,2013-01-30 01:56:00
7:56 PM,-0.9,-5.1,83,30.28,-9999.0,Calm,Calm,-,N/A,,Unknown,0,2013-01-30 02:56:00
8:56 PM,-0.0,-4.0,83,30.25,-9999.0,Calm,Calm,-,N/A,,Unknown,0,2013-01-30 03:56:00
9:56 PM,1.0,-4.0,79,30.21,-9999.0,Calm,Calm,-,N/A,,Unknown,0,2013-01-30 04:56:00
10:56 PM,1.0,-2.9,83,30.18,-9999.0,Calm,Calm,-,N/A,,Unknown,0,2013-01-30 05:56:00
11:56 PM,1.9,-2.0,83,30.16,-9999.0,Calm,Calm,-,N/A,,Unknown,0,2013-01-30 06:56:00